Zanesville, OH

1:32 PM EST on November 22, 2017 (GMT -0500)
Zanesville Municipal

Weather History for KZZV - February, 2013

Change the Weather History Date:

Monday, February 18, 2013

  Actual Average Record
Temperature  
Mean Temperature 30 °F 33 °F  
Max Temperature 49 °F 42 °F 69 °F (2017)
Min Temperature 10 °F 23 °F 1 °F (1979)
Degree Days  
Heating Degree Days 35 32  
Month to date heating degree days 664 613  
Since 1 July heating degree days 3802 3880  
Cooling Degree Days 0 0  
Month to date cooling degree days 0 0  
Year to date cooling degree days 0 0  
Moisture  
Dew Point 19 °F    
Average Humidity 64    
Maximum Humidity 83    
Minimum Humidity 45    
Precipitation  
Precipitation 0.01 in 0.08 in 0.83 in (1976)
Month to date precipitation 0.72 1.38  
Year to date precipitation 2.84 4.04  
Sea Level Pressure  
Sea Level Pressure 30.11 in    
Wind  
Wind Speed 9 mph (SSE)    
Max Wind Speed 16 mph    
Max Gust Speed 22 mph    
Visibility 10 miles    
Events      
T = Trace of Precipitation, MM = Missing Value Source: NWS Daily Summary

Daily Weather History Graph

Daily Weather History Graph

Search for Another Location

Airport or City:

Trip Planner

Search our weather history database for the weather conditions in past years. The results will help you decide how hot, cold, wet, or windy it might be!

Date:

Astronomy

Feb. 18, 2013 Rise Set
Actual Time 7:16 AM EST 6:07 PM EST
Civil Twilight 6:48 AM EST 6:34 PM EST
Nautical Twilight 6:16 AM EST 7:06 PM EST
Astronomical Twilight 5:45 AM EST 7:37 PM EST
Moon 11:52 AM EST (2/18) 1:54 AM EST (2/18)
Length of Visible Light 11h 46m
Length of Day
10h 51m
First Quarter, 58% of the Moon is Illuminated
Feb 18
First Quarter
Feb 25
Full
Mar 4
Last Quarter
Mar 11
New
Mar 19
First Quarter

Hourly Weather History & Observations

Time (EST) Temp. Windchill Dew Point Humidity Pressure Visibility Wind Dir Wind Speed Gust Speed Precip Events Conditions
12:53 AM 12.0 °F - 7.0 °F 80% 30.31 in 10.0 mi Calm Calm - N/A   Clear
1:53 AM 10.0 °F - 6.1 °F 84% 30.30 in 10.0 mi Calm Calm - N/A   Clear
2:53 AM 10.9 °F - 7.0 °F 84% 30.30 in 10.0 mi Calm Calm - N/A   Clear
3:53 AM 10.9 °F - 7.0 °F 84% 30.29 in 10.0 mi Calm Calm - N/A   Clear
4:53 AM 12.0 °F 5.9 °F 6.1 °F 77% 30.29 in 10.0 mi SE 3.5 mph - N/A   Clear
5:53 AM 12.9 °F 3.8 °F 7.0 °F 77% 30.29 in 10.0 mi SSE 5.8 mph - N/A   Clear
7:53 AM 18.0 °F 6.1 °F 8.1 °F 65% 30.27 in 10.0 mi SSE 10.4 mph - N/A   Clear
8:53 AM 21.0 °F 9.9 °F 10.0 °F 63% 30.27 in 10.0 mi SSE 10.4 mph - N/A   Clear
9:53 AM 26.1 °F 15.0 °F 10.9 °F 53% 30.23 in 10.0 mi SSE 12.7 mph - N/A   Clear
10:53 AM 30.0 °F 21.7 °F 15.1 °F 54% 30.20 in 10.0 mi SSE 9.2 mph - 0.01 in   Clear
11:53 AM 35.1 °F 26.4 °F 18.0 °F 50% 30.16 in 10.0 mi SSE 12.7 mph - N/A   Partly Cloudy
12:53 PM 39.9 °F 32.9 °F 21.0 °F 47% 30.12 in 10.0 mi South 11.5 mph - N/A   Clear
1:53 PM 43.0 °F 36.0 °F 24.1 °F 47% 30.07 in 10.0 mi SSE 13.8 mph - N/A   Clear
2:53 PM 46.9 °F - 26.1 °F 44% 30.06 in 10.0 mi South 13.8 mph - N/A   Clear
3:53 PM 48.0 °F - 28.0 °F 46% 30.04 in 10.0 mi South 13.8 mph - N/A   Clear
4:53 PM 48.0 °F - 28.0 °F 46% 30.01 in 10.0 mi South 12.7 mph - N/A   Clear
5:53 PM 45.0 °F 40.1 °F 28.9 °F 53% 29.99 in 10.0 mi SSE 9.2 mph - N/A   Clear
6:53 PM 44.1 °F 38.1 °F 28.9 °F 55% 29.96 in 10.0 mi SSE 11.5 mph - N/A   Clear
7:53 PM 45.0 °F 40.1 °F 30.0 °F 56% 29.95 in 10.0 mi South 9.2 mph - N/A   Clear
8:53 PM 45.0 °F 39.3 °F 30.0 °F 56% 29.92 in 10.0 mi South 11.5 mph - N/A   Clear
9:53 PM 46.0 °F 40.6 °F 30.0 °F 54% 29.89 in 10.0 mi South 11.5 mph - N/A   Mostly Cloudy
10:53 PM 46.0 °F 39.9 °F 28.9 °F 51% 29.85 in 10.0 mi South 13.8 mph - N/A   Scattered Clouds
11:53 PM 45.0 °F 39.3 °F 30.0 °F 56% 29.82 in 10.0 mi SSE 11.5 mph 21.9 mph N/A   Mostly Cloudy